DW6221 Weather Reports


time (UTC)temp
C
wind
direction
speed
KPH
gust
KPH
rain 1hr
cm
rain 24hr
cm
rain mn
cm
humidity
%
barometer
mb
20260510073011 7 121 1.6 14.5 0.00 0.03 0.00 95 1012.3
20260510071509 7 11 0.0 0.0 0.00 0.03 0.00 96 1011.9
20260510070010 6 11 0.0 8.0 0.00 0.03 0.00 96 1011.9
20260510064505 6 171 0.0 0.0 0.00 0.03 0.00 96 1011.5
20260510063005 6 171 0.0 0.0 0.00 0.03 0.00 95 1011.6
20260510061505 6 171 0.0 0.0 0.00 0.03 0.00 96 1011.5
20260510060005 7 171 0.0 0.0 0.00 0.03 0.00 95 1011.5
20260510054502 7 171 0.0 0.0 0.00 0.03 0.00 96 1011.5
20260510053100 7 171 0.0 0.0 0.00 0.03 0.00 96 1011.6
20260510051601 7 171 0.0 0.0 0.00 0.03 0.00 95 1011.6
20260510050059 7 171 0.0 0.0 0.00 0.03 0.00 95 1011.7
20260510044554 7 171 0.0 0.0 0.00 0.03 0.00 95 1011.7
20260510043052 8 171 0.0 0.0 0.00 0.03 0.00 96 1011.8
20260510041615 8 171 0.0 0.0 0.00 0.03 0.00 95 1011.8
20260510040049 8 171 0.0 0.0 0.00 0.03 0.00 95 1011.9
20260510034554 8 171 0.0 0.0 0.00 0.03 0.03 95 1011.9
20260510033052 8 171 0.0 0.0 0.00 0.03 0.03 95 1011.9
20260510031553 8 171 0.0 0.0 0.00 0.03 0.03 95 1011.9
20260510030045 9 171 0.0 0.0 0.00 0.03 0.03 95 1011.8
20260510024604 9 171 0.0 0.0 0.00 0.03 0.03 94 1011.7
20260510023044 10 171 0.0 0.0 0.00 0.03 0.03 95 1011.6
20260510021544 10 171 0.0 0.0 0.00 0.03 0.03 93 1011.3
20260510020043 10 171 0.0 0.0 0.00 0.03 0.03 93 1011.4
20260510014541 11 171 0.0 0.0 0.00 0.03 0.03 93 1011.3
20260510013057 11 171 0.0 0.0 0.00 0.03 0.03 92 1011.2
20260510011541 11 171 0.0 0.0 0.00 0.03 0.03 91 1010.9
20260510010041 12 171 0.0 0.0 0.00 0.03 0.03 90 1010.5
20260510004545 12 171 0.0 0.0 0.00 0.03 0.03 88 1010.4
20260510003039 13 171 0.0 0.0 0.00 0.03 0.03 87 1010.3
20260510001538 13 171 0.0 0.0 0.00 0.03 0.03 86 1010.2
20260510000039 14 171 0.0 0.0 0.00 0.03 0.03 84 1010.2
20260509234538 14 171 0.0 0.0 0.00 0.03 0.03 83 1010.2
20260509233036 15 171 0.0 0.0 0.00 0.03 0.03 82 1010.2
20260509231537 15 171 0.0 0.0 0.00 0.03 0.03 78 1010.1
20260509230037 15 171 0.0 0.0 0.00 0.03 0.03 78 1010.1
20260509224536 15 171 0.0 0.0 0.00 0.03 0.03 78 1010.1
20260509223043 16 171 0.0 1.6 0.00 0.03 0.03 74 1010.0
20260509221538 16 171 0.0 1.6 0.00 0.03 0.03 73 1010.0
20260509220033 16 197 0.0 0.0 0.00 0.03 0.03 74 1010.1
20260509214532 16 197 0.0 0.0 0.00 0.03 0.03 74 1010.2
20260509213031 16 196 0.0 1.6 0.00 0.03 0.03 74 1010.2
20260509211530 16 196 0.0 0.0 0.00 0.03 0.03 75 1010.3
20260509210041 15 196 0.0 0.0 0.00 0.03 0.03 75 1010.2
20260509204525 15 196 0.0 0.0 0.00 0.03 0.03 74 1010.2
20260509203025 15 196 0.0 0.0 0.00 0.03 0.03 77 1010.3
20260509201525 15 196 0.0 0.0 0.00 0.03 0.03 77 1010.4
20260509200018 15 196 0.0 0.0 0.00 0.03 0.03 76 1010.6
20260509194515 15 196 0.0 1.6 0.00 0.03 0.03 76 1010.5
20260509193013 15 196 0.0 0.0 0.00 0.03 0.03 76 1010.8
20260509191513 15 196 0.0 3.2 0.00 0.03 0.03 71 1010.6
20260509190111 16 219 0.0 6.4 0.03 0.03 0.03 71 1010.6
20260509184514 15 212 0.0 6.4 0.03 0.03 0.03 79 1011.0
20260509183003 14 349 0.0 0.0 0.03 0.03 0.03 79 1011.4
20260509181600 14 349 0.0 3.2 0.03 0.03 0.03 83 1011.8
20260509181501 14 349 0.0 3.2 0.03 0.03 0.03 81 1011.8
20260509180058 15 349 0.0 3.2 0.00 0.00 0.00 70 1012.1
20260509174557 15 349 0.0 0.0 0.00 0.00 0.00 71 1012.0
20260509173117 15 30 0.0 6.4 0.00 0.00 0.00 71 1011.9
20260509171551 15 31 0.0 6.4 0.00 0.00 0.00 70 1012.3
20260509170056 15 31 0.0 6.4 0.00 0.00 0.00 69 1012.3
20260509164549 15 36 0.0 8.0 0.00 0.00 0.00 67 1012.3
20260509163047 15 360 0.0 11.3 0.00 0.00 0.00 69 1012.5
20260509161543 15 360 3.2 11.3 0.00 0.00 0.00 71 1012.5
20260509160041 15 9 0.0 6.4 0.00 0.00 0.00 70 1012.3
20260509154535 15 218 0.0 3.2 0.00 0.00 0.00 73 1012.5
20260509153033 13 217 0.0 0.0 0.00 0.00 0.00 84 1012.5
20260509151528 12 217 0.0 0.0 0.00 0.00 0.00 91 1012.6
20260509150028 12 217 0.0 0.0 0.00 0.00 0.00 89 1013.0
20260509144524 12 217 0.0 0.0 0.00 0.00 0.00 89 1013.4
20260509143023 12 217 0.0 0.0 0.00 0.00 0.00 88 1013.2
20260509141523 12 217 0.0 0.0 0.00 0.00 0.00 89 1013.1
20260509140021 11 217 0.0 0.0 0.00 0.00 0.00 88 1012.7
20260509134519 12 217 0.0 0.0 0.00 0.00 0.00 85 1012.6
20260509133018 12 217 0.0 0.0 0.00 0.00 0.00 82 1012.7
20260509131518 12 217 0.0 0.0 0.00 0.00 0.00 80 1012.6
20260509130045 12 217 0.0 0.0 0.00 0.00 0.00 80 1012.6
20260509124529 12 217 0.0 0.0 0.00 0.00 0.00 78 1012.4
20260509123016 12 217 0.0 0.0 0.00 0.00 0.00 80 1012.5
20260509121513 12 217 0.0 0.0 0.00 0.00 0.00 81 1012.5
20260509120015 12 217 0.0 0.0 0.00 0.00 0.00 82 1012.5
20260509114508 11 217 0.0 0.0 0.00 0.00 0.00 81 1012.3
20260509113007 11 217 0.0 0.0 0.00 0.00 0.00 84 1012.2
20260509111506 11 217 0.0 0.0 0.00 0.00 0.00 82 1012.0
20260509110005 10 217 0.0 0.0 0.00 0.00 0.00 82 1012.0
20260509104504 11 217 0.0 0.0 0.00 0.00 0.00 79 1011.9
20260509103002 11 217 0.0 0.0 0.00 0.00 0.00 79 1011.8
20260509101604 10 217 0.0 0.0 0.00 0.00 0.00 80 1011.7
20260509100101 10 217 0.0 0.0 0.00 0.00 0.00 80 1011.7
20260509094602 11 217 0.0 0.0 0.00 0.00 0.00 78 1011.6
20260509093059 11 217 0.0 0.0 0.00 0.00 0.00 81 1011.7
20260509091557 11 217 0.0 0.0 0.00 0.00 0.00 77 1011.7
20260509090101 11 217 0.0 0.0 0.00 0.00 0.00 78 1011.8
20260509084602 11 217 0.0 0.0 0.00 0.00 0.00 77 1011.8
20260509083051 11 217 0.0 0.0 0.00 0.00 0.00 72 1012.1
20260509081556 11 217 0.0 0.0 0.00 0.00 0.00 78 1012.1
20260509080056 11 217 0.0 0.0 0.00 0.00 0.00 73 1012.3
20260509074547 11 217 0.0 0.0 0.00 0.00 0.00 75 1012.2